Regional Weather Roundup
Issued by NWS

Home | Current Version | Previous Version | Text Only | Print | Product List | Glossary Off
Versions: 1 2 3 4 5 6 7 8 9 10 11 12 13 14 15 16 17 18 19 20 21 22 23 24 25 26 27 28 29 30 31 32 33 34 35 36 37 38 39 40 41 42 43 44 45 46 47 48 49 50

000
ASUS43 KBIS 040010
RWRND

NORTH DAKOTA REGIONAL WEATHER ROUNDUP
NATIONAL WEATHER SERVICE BISMARCK ND
700 PM CDT THU SEP 03 2015

NOTE: "FAIR" INDICATES FEW OR NO CLOUDS BELOW 12,000 FEET WITH NO
SIGNIFICANT WEATHER AND/OR OBSTRUCTIONS TO VISIBILITY.


NDZ001>003-009>011-017-040100-
NORTHWEST NORTH DAKOTA

CITY           SKY/WX    TMP DP  RH WIND       PRES   REMARKS
WILLISTON      MOSUNNY   82  53  36 N16       29.72S
6HR MIN TEMP:  82; 6HR MAX TEMP:  88;

MINOT          SUNNY     86  69  56 NW14      29.64S HX  90
$$

NDZ018>021-031>035-040>046-040100-
SOUTHWEST NORTH DAKOTA

CITY           SKY/WX    TMP DP  RH WIND       PRES   REMARKS
BISMARCK       PTSUNNY   93  56  28 S15       29.66R HX  91
6HR MIN TEMP:  91; 6HR MAX TEMP: 101;

DICKINSON      MOSUNNY   88  54  31 N6        29.70S
GARRISON         N/A     94  55  26 CALM      29.65R HX  92
6HR MIN TEMP:  87; 6HR MAX TEMP:  96;

HETTINGER ARPT MOSUNNY   91  47  21 W5        29.72S
$$

NDZ004>008-012>016-024-026-027-054-040100-
NORTHEAST NORTH DAKOTA

CITY           SKY/WX    TMP DP  RH WIND       PRES   REMARKS
GRAND FORKS    MOSUNNY   89  71  55 SE22G29   29.69S HX  95
GRND FRKS AFB  SUNNY     89  73  57 SE14      29.69S HX  96
DEVILS LAKE    SUNNY     90  66  45 SE14      29.65S HX  92
$$

NDZ022-023-025-028>030-036>039-047>053-040100-
SOUTHEAST NORTH DAKOTA

CITY           SKY/WX    TMP DP  RH WIND       PRES   REMARKS
FARGO          CLEAR     89  73  59 SE17G26   29.72F HX  97
6HR MIN TEMP:  87; 6HR MAX TEMP:  93;

JAMESTOWN      SUNNY     86  64  47 S10       29.71R
$$




USA.gov is the U.S. government's official web portal to all federal, state and local government web resources and services.